Powrót do katalogu

LEMUR-2 CLARA

AktywnyNaukaSSO
NORAD 68483·PAYLOAD·🇱🇺 Luxembourg

Wystrzelony Mar 30, 2026 z Vandenberg Space Force Base

Loading…

Następne Przeloty (najbliższe 24 godziny)

TLE

ŚwieżeSource: Space-Track

Epoka: Sep 14, 2026, 03:34 UTC

1 68483U 26067BV  26257.14865691  .00003044  00000-0  29651-3 0  9999
2 68483  97.7735 214.4117 0003447  23.2884 336.8491 14.93232348 25004

Śledź LEMUR-2 CLARA w czasie rzeczywistym z AllMySat

Download on the App Store